SCP
0 0 0 0 0 0 0 0 0 0 0 1 1 1 1 2 2 3 3 3 4 4 3 3 3 2 2 2 2 2 2 2 2 2 2 2 2 2 2 2 1 1 1 1
0 0 0 0 0 0 0 0 0 0 0 1 1 1 2 2 3 3 3 3 3 3 3 3 2 2 2 2 3 3 2 2 2 2 2 2 2 2 2 2 1 1 1 1
0 0 0 0 0 0 0 0 0 0 0 1 1 1 2 3 3 3 3 3 3 3 3 2 2 3 3 3 3 3 3 3 3 3 3 3 3 3 2 2 1 1 1 1
0 0 0 0 0 0 0 0 0 0 0 1 1 1 2 2 3 3 4 4 3 2 2 2 2 3 3 4 4 4 3 3 4 4 4 5 4 3 2 2 2 1 1 1
0 0 0 0 0 0 0 0 0 0 0 0 0 1 1 2 3 3 4 4 3 2 2 2 3 4 4 5 5 5 4 4 5 5 5 5 4 3 3 2 2 1 1 1
0 0 0 0 0 0 0 0 0 0 0 0 0 0 1 1 2 3 3 4 4 3 3 3 3 4 6 7 7 7 6 5 6 6 6 5 4 3 3 3 2 1 1 1
0 0 0 0 0 0 0 0 0 0 0 0 0 0 0 1 2 2 3 4 4 4 3 3 3 4 7 9 10 9 8 6 6 6 6 4 3 3 3 3 2 2 1 1
0 0 0 0 0 0 0 0 0 0 0 0 0 0 1 1 2 2 3 4 4 4 3 3 3 4 6 9 12 12 10 7 6 6 5 4 3 3 3 2 2 1 1 1
0 0 0 0 0 0 0 0 0 0 0 0 0 0 1 1 2 2 2 3 4 4 3 3 3 3 4 7 11 13 12 9 7 6 5 4 3 3 2 2 2 1 1 1
0 0 0 0 0 0 0 0 0 0 0 0 0 0 1 2 2 2 2 3 4 4 3 3 3 3 3 6 11 14 13 11 8 7 5 4 3 3 2 2 1 1 1 1
0 0 0 0 0 0 0 0 0 0 0 0 0 0 1 2 2 2 3 3 4 4 4 3 4 4 4 8 14 16 15 12 10 8 6 5 4 3 2 2 2 1 2 2
0 0 0 0 0 0 0 0 0 0 0 0 0 1 2 3 4 4 4 5 5 4 4 4 4 5 6 11 16 17 15 12 11 9 7 5 4 3 2 2 2 2 2 2
0 0 0 0 0 0 0 0 0 0 0 0 0 1 2 4 6 6 6 6 6 5 5 5 5 5 7 11 16 17 15 13 12 10 8 6 5 3 2 2 2 2 2 2
0 0 0 0 0 0 0 0 0 0 0 0 0 1 2 3 5 7 8 7 7 6 6 6 6 6 7 10 15 17 16 14 12 10 8 6 5 3 3 2 2 2 2 2
0 0 0 0 0 0 0 0 0 0 0 0 0 1 1 2 5 8 9 9 9 9 8 8 8 8 7 9 12 15 15 14 12 10 8 6 4 3 3 2 2 2 2 2
0 0 0 0 0 0 0 0 0 0 0 1 1 1 1 2 4 7 10 11 11 11 11 10 10 9 7 7 8 11 12 12 11 10 8 6 4 3 3 2 2 2 2 2
0 0 0 0 0 0 0 0 0 1 1 1 1 2 2 3 5 8 10 12 14 13 12 10 9 8 6 6 6 7 9 9 9 9 8 6 5 3 3 3 3 2 2 2
0 0 0 0 0 0 0 1 1 1 1 1 2 3 5 6 8 10 12 15 16 15 13 11 9 7 7 6 6 7 7 8 8 8 8 6 5 4 3 3 3 3 2 2
0 0 0 0 0 0 1 1 2 2 1 2 4 5 7 8 10 12 13 16 18 18 17 16 13 10 9 8 8 8 8 9 9 8 7 6 5 4 4 4 4 3 2 2
0 0 0 0 0 0 1 2 2 2 2 3 5 6 7 9 10 11 12 14 18 21 22 21 17 13 11 10 9 9 9 9 9 8 7 6 6 5 5 4 4 3 3 3
1 0 0 0 0 0 1 2 2 2 2 4 6 7 8 9 10 12 13 15 18 23 26 24 19 14 12 11 10 9 8 8 8 7 7 7 7 6 5 4 3 4 4 4
1 0 0 0 0 1 2 2 3 3 4 5 7 9 10 11 12 14 17 19 20 24 27 24 19 14 12 11 10 8 7 7 7 8 8 8 7 5 4 3 3 3 3 4
1 1 1 1 1 2 3 4 5 6 7 8 9 10 12 14 16 18 21 21 21 22 24 23 19 15 12 9 8 8 7 7 8 8 8 7 6 3 2 1 1 1 2 2
2 2 3 3 4 4 5 6 8 10 11 11 11 12 14 16 19 21 23 23 20 19 20 20 17 14 10 8 7 7 7 7 8 7 7 5 3 2 1 0 0 0 0 1
2 3 4 5 5 5 6 8 10 13 14 13 12 12 14 17 21 23 24 24 20 17 15 15 14 11 9 7 7 7 7 7 6 6 5 3 2 1 1 0 0 0 0 0
2 3 4 5 5 5 6 8 10 13 15 14 12 11 13 18 22 23 24 24 20 15 13 12 11 9 8 7 7 6 6 6 5 4 3 2 2 1 1 0 0 0 0 0
Wind_Speed
2 4 2 6 6 6 4 2 3 5 6 6 7 9 12 12 10 10 10 11 12 12 10 10 10 10 9 8 8 7 6 5 4 2 2 2 1 1 1 1 2 3 2 2
5 3 9 6 4 3 3 2 3 2 4 6 6 6 9 11 13 13 13 12 12 10 8 9 9 9 10 9 9 8 8 7 5 3 3 2 2 1 1 1 1 2 2 2
5 8 5 4 4 3 4 5 5 4 2 4 6 2 3 5 5 7 8 10 11 13 13 11 11 10 10 10 10 9 8 7 6 5 3 2 1 1 1 0 1 1 1 2
6 7 4 4 5 5 5 5 5 5 5 2 5 3 5 5 5 7 8 9 9 10 11 11 11 10 11 11 9 8 8 7 6 5 4 4 3 2 2 1 1 1 1 1
5 3 3 4 6 5 6 4 3 4 5 2 1 4 5 3 7 9 10 11 11 11 12 12 12 12 11 10 9 8 7 6 5 5 5 4 3 2 1 1 1 0 0 0
7 5 4 6 5 4 3 3 6 7 6 1 4 4 5 7 13 11 11 11 11 11 10 11 10 8 8 8 7 7 7 6 5 5 5 5 4 3 2 1 1 1 0 0
5 6 4 2 1 3 4 6 5 5 4 5 4 3 8 11 12 13 13 12 12 11 10 10 10 10 9 9 8 8 7 6 6 6 5 4 4 4 4 3 2 2 1 1
3 6 5 3 6 5 3 10 9 5 4 4 2 4 7 7 8 10 10 10 10 11 10 10 11 11 11 11 9 9 8 7 6 6 5 4 4 3 2 2 2 2 2 2
5 7 6 4 4 7 4 4 9 8 3 1 3 4 6 0 5 7 8 8 9 11 11 10 10 10 10 10 10 10 9 7 6 6 5 4 3 3 3 2 2 1 1 1
6 4 6 5 0 2 7 7 6 6 5 2 3 3 5 5 7 7 8 8 8 8 9 9 9 9 9 9 9 8 8 8 7 6 5 4 3 3 3 2 2 1 1 1
5 3 6 2 4 5 2 3 6 5 6 7 3 7 7 10 10 10 9 9 9 9 8 8 8 8 8 8 8 8 8 7 6 6 5 4 3 3 3 2 1 1 1 1
4 5 3 7 7 6 6 7 8 6 3 5 5 8 5 8 8 9 9 8 8 9 9 8 7 7 7 8 8 8 8 7 7 6 6 5 4 3 3 2 1 2 2 2
4 6 1 7 7 2 2 4 6 7 6 5 4 7 2 3 5 7 9 9 9 9 8 8 7 7 7 8 8 8 8 7 7 7 6 5 4 4 3 2 3 3 3 3
6 5 7 8 8 4 3 3 4 7 5 4 6 6 3 4 6 6 7 8 8 8 9 9 8 8 8 7 8 8 7 7 7 7 6 6 5 4 4 4 4 4 4 5
6 4 4 5 5 2 3 5 5 6 8 8 8 8 10 9 10 11 10 10 9 8 9 9 9 9 8 8 7 8 7 7 8 7 7 6 5 5 5 5 5 5 5 6
4 3 1 2 2 2 4 5 6 6 6 6 5 6 6 5 6 8 10 12 12 10 10 9 9 10 10 10 9 8 8 7 8 8 7 6 6 6 6 5 5 5 6 5
2 4 3 2 3 3 5 6 5 5 5 8 8 8 5 5 8 10 10 11 13 12 12 11 10 9 9 9 10 10 8 7 8 8 7 7 6 6 6 6 6 6 6 6
5 3 3 1 2 4 10 5 5 4 5 6 6 7 10 10 8 7 9 11 11 11 11 11 9 9 8 8 8 9 9 8 8 8 8 7 7 7 6 6 6 5 5 5
7 7 4 3 2 5 7 4 3 3 4 3 7 7 6 7 6 2 3 7 10 11 11 10 10 10 10 10 10 10 8 8 8 8 8 7 7 7 7 6 6 5 5 5
4 6 5 4 3 6 8 5 2 6 3 3 7 9 8 8 5 4 3 6 7 8 9 9 9 10 10 10 10 10 9 8 7 7 7 7 7 7 7 6 5 5 5 5
3 3 4 4 3 7 7 5 2 5 8 4 5 8 8 5 6 6 6 7 9 9 9 9 9 9 10 10 10 10 9 8 7 7 8 7 6 7 7 6 5 6 5 5
5 4 4 4 4 8 6 4 2 7 4 3 3 6 6 6 6 8 9 9 10 10 10 9 9 8 8 9 11 10 8 7 7 7 8 7 6 6 6 6 5 5 6 6
3 6 6 7 8 6 4 2 3 2 3 1 2 5 8 8 8 8 8 9 9 10 9 9 10 9 7 7 10 11 9 8 8 8 8 7 7 6 5 6 6 5 4 4
3 1 2 1 4 3 3 2 4 3 3 2 3 6 8 9 9 9 8 8 9 8 9 8 10 9 7 6 8 9 10 9 9 9 8 7 7 6 5 4 4 4 4 4
3 2 1 1 3 4 4 2 3 3 4 5 5 5 7 10 9 8 8 8 8 8 7 8 9 9 8 7 8 8 10 10 9 9 8 7 6 6 5 5 3 3 2 3
2 2 2 4 5 2 4 3 1 2 2 2 5 6 6 8 10 8 7 7 8 9 8 8 8 9 8 8 8 8 8 9 10 8 7 6 6 5 5 5 5 9 5 5
Wind_Direction
345 76 220 226 200 192 197 203 217 227 187 145 151 161 172 176 175 177 177 175 177 180 177 169 168 164 161 160 158 160 164 171 160 144 141 134 161 185 166 183 179 192 196 186
22 262 234 231 241 214 206 222 237 227 162 142 152 168 180 181 185 181 177 178 178 172 170 174 170 166 168 171 169 171 172 173 173 170 160 161 167 183 182 192 198 203 188 186
210 244 238 228 251 245 249 196 200 192 98 84 110 55 200 207 196 188 181 177 177 177 178 181 178 177 173 175 176 176 177 176 177 169 143 125 88 53 60 154 222 234 200 186
244 251 251 234 231 207 252 227 192 168 125 196 144 164 247 211 218 201 190 183 183 182 179 180 181 180 182 184 180 175 174 176 175 166 157 159 165 183 209 191 193 218 229 221
256 242 217 226 233 207 218 213 173 151 128 91 47 129 257 189 213 211 198 192 188 187 184 185 187 187 185 181 177 176 171 175 175 171 171 169 177 192 189 150 158 198 308 331
255 267 222 217 239 215 176 58 36 50 73 78 231 150 238 208 207 201 199 195 189 189 189 188 187 178 175 173 169 166 165 175 173 171 170 171 179 187 164 160 161 178 226 308
306 299 275 233 277 333 86 88 40 12 23 251 248 165 232 221 203 189 186 190 187 184 185 185 177 175 172 169 167 165 164 172 173 169 171 173 176 173 175 177 171 171 183 226
219 281 264 215 179 183 167 135 151 176 202 266 315 217 252 234 189 173 172 176 175 176 182 184 181 178 175 172 168 167 168 172 173 170 172 169 166 163 164 163 163 173 193 211
186 251 273 237 192 154 151 168 164 138 161 144 281 281 315 25 147 154 158 160 168 174 177 180 177 172 171 171 173 172 167 164 166 164 159 157 157 151 152 153 147 162 191 199
168 239 279 271 114 185 162 155 100 115 145 207 279 252 222 206 180 168 166 171 175 170 167 166 168 168 168 168 166 160 158 161 158 159 161 159 153 153 152 140 140 146 177 176
172 190 295 334 183 202 161 126 117 126 150 153 216 263 224 197 187 175 179 175 169 162 162 166 166 161 157 152 151 151 151 149 152 155 150 144 136 133 129 122 137 158 146 132
171 139 248 263 249 190 171 171 143 145 200 157 166 260 261 186 175 163 167 163 153 154 158 155 151 145 143 146 148 149 150 151 153 148 141 139 132 126 117 114 101 95 97 93
148 119 78 333 333 329 178 172 151 136 127 147 162 256 299 151 145 153 158 153 144 144 143 137 135 140 146 148 148 147 149 148 144 138 136 130 126 124 125 116 91 84 87 80
121 124 160 195 221 234 251 241 163 130 149 184 203 224 244 172 155 162 154 147 141 140 145 146 147 146 146 146 146 144 144 142 139 138 136 132 130 128 122 108 96 86 84 82
102 147 186 214 233 249 249 247 219 179 177 178 213 206 211 193 173 170 159 145 142 146 148 153 153 149 142 140 141 141 141 141 142 137 134 134 128 120 113 104 97 92 88 87
70 121 102 300 302 314 294 274 236 213 188 185 185 234 221 196 157 156 160 155 156 160 156 153 154 151 150 150 147 141 142 145 140 137 136 131 124 118 113 108 101 94 88 83
65 96 90 277 319 8 279 246 221 220 206 176 197 219 177 157 166 166 161 158 161 163 161 159 159 156 154 150 146 145 141 138 135 134 131 128 126 121 119 115 103 98 94 88
139 105 121 127 51 226 245 246 196 201 236 193 181 179 170 174 174 167 159 156 159 162 161 159 158 152 145 138 135 134 132 132 135 133 130 129 127 121 117 112 108 102 96 96
151 139 126 124 177 271 285 273 177 165 270 215 160 152 146 132 91 60 163 158 163 164 161 161 158 150 140 138 138 133 131 133 133 135 136 136 132 128 126 123 118 111 105 96
99 118 125 134 165 227 248 274 204 116 268 259 148 145 146 125 131 219 192 146 139 138 142 145 142 136 137 143 141 134 134 136 142 141 138 134 133 134 133 131 124 113 110 108
79 84 136 159 204 256 259 289 66 137 224 241 165 153 151 163 180 174 138 131 130 129 131 133 133 137 141 142 136 134 136 147 144 132 127 125 124 127 127 122 121 121 116 108
167 151 178 159 196 249 298 356 164 216 222 190 164 146 135 133 127 126 124 128 127 128 130 130 125 123 128 135 133 131 137 138 130 128 124 122 121 122 122 117 114 114 118 112
179 181 185 189 213 238 281 247 242 167 136 139 136 132 129 126 131 129 130 129 129 132 132 129 126 121 120 129 135 134 136 131 126 126 122 119 110 100 109 115 116 111 110 116
304 332 141 216 263 281 313 352 18 57 89 94 127 132 131 128 131 127 132 132 133 131 129 128 127 128 129 127 127 133 133 130 131 131 125 119 111 103 95 97 109 120 126 130
273 337 16 300 294 349 343 8 25 48 56 67 84 113 130 130 132 130 134 137 135 129 127 129 132 133 136 130 128 137 136 136 131 128 124 118 113 115 103 85 73 107 125 156
245 193 180 227 235 219 252 270 87 84 66 83 106 110 121 126 131 128 132 135 133 132 130 130 131 133 136 133 132 138 139 141 139 134 132 131 128 123 118 110 80 51 68 93